Flag for U.S.A. Weather past 2 weeks in St. George, Utah, U.S.A.

Now
70 °F

Sunny.


Feels Like: 70 °F
Forecast: 52 / 73 °F
Wind: 12 mph from East

Location: Saint George

Current Time: Apr 1, 2015 at 12:31:31 PM

Latest Report: Apr 1, 2015 at 11:55 AM


Visibility: 9 mi

Pressure: 29.98 "Hg

Humidity: 20%

Dew point: 27 °F

Location of St. GeorgeLocation

Historic Weather in St. George — Graph

°F

St. George temperature yesterday

Maximum temperature yesterday: 84 °F (at 5:35 PM)
Minimum temperature yesterday: 50 °F (at 7:55 AM)
Average temperature yesterday: 68 °F

Past Weeks' High & Low Weather Summary

 TemperatureHumidityPressure
High84 °F (Mar 28, 4:15 PM)51% (Mar 18, 5:55 AM)30.35 "Hg (Mar 18, 5:55 AM)
Low46 °F (Mar 20, 6:55 AM)11% (Mar 28, 7:15 PM)29.80 "Hg (Mar 31, 6:55 PM)
Average64 °F25%30.08 "Hg
* Reported Mar 17 11:15 AM — Apr 1 11:35 AM, St. George, Weather by CustomWeather, © 2015

Note: Actual official high and low records may vary slightly from our data, if they occured in-between our weather recording intervals... More about our weather records

Advertising

St. George weather history for previous 24 hours

 ConditionsComfort  
Time TempWeatherWind HumidityBarometerVisibility
11:35 AM
Wed, Apr 1
68 °FSunny.12 mph21%29.99 "Hg8 mi
11:15 AM66 °FSunny.10 mph22%29.99 "Hg8 mi
10:55 AM66 °FSunny.8 mph21%29.99 "Hg8 mi
10:35 AM64 °FSunny.8 mph24%29.98 "Hg8 mi
10:15 AM64 °FSunny.13 mph24%29.97 "Hg8 mi
9:55 AM63 °FSunny.10 mph25%29.96 "Hg8 mi
9:35 AM63 °FSunny.9 mph25%29.96 "Hg9 mi
9:15 AM63 °FSunny.18 mph25%29.95 "Hg9 mi
8:55 AM61 °FSunny.17 mph27%29.93 "Hg8 mi
8:35 AM61 °FSunny.23 mph25%29.93 "Hg7 mi
8:15 AM61 °FClear.23 mph25%29.93 "Hg5 mi
7:55 AM61 °FClear.8 mph25%29.92 "Hg7 mi
7:35 AM54 °FClear.3 mph35%29.91 "Hg10 mi
7:15 AM52 °FClear.6 mph38%29.89 "Hg10 mi
6:55 AM55 °FClear.No wind33%29.88 "Hg10 mi
6:35 AM55 °FClear.7 mph31%29.87 "Hg10 mi
6:15 AM57 °FClear.No wind29%29.86 "Hg10 mi
5:55 AM55 °FClear.3 mph31%29.85 "Hg10 mi
5:35 AM57 °FClear.No wind31%29.85 "Hg10 mi
5:15 AM57 °FClear.3 mph29%29.85 "Hg10 mi
4:55 AM57 °FClear.3 mph29%29.84 "Hg10 mi
4:35 AM59 °FClear.No wind29%29.84 "Hg10 mi
4:15 AM61 °FClear.5 mph27%29.84 "Hg10 mi
3:55 AM57 °FClear.9 mph31%29.84 "Hg10 mi
3:35 AM59 °FClear.5 mph29%29.84 "Hg10 mi
3:15 AM63 °FClear.5 mph25%29.84 "Hg10 mi
2:55 AM61 °FClear.No wind27%29.84 "Hg10 mi
2:35 AM61 °FClear.No wind27%29.83 "Hg10 mi
2:15 AM63 °FClear.9 mph25%29.83 "Hg10 mi
1:55 AM61 °FClear.8 mph27%29.83 "Hg10 mi
1:35 AM63 °FClear.10 mph25%29.83 "Hg10 mi
1:15 AM63 °FClear.10 mph24%29.83 "Hg10 mi
12:55 AM63 °FClear.7 mph24%29.83 "Hg10 mi
12:35 AM63 °FClear.9 mph22%29.83 "Hg10 mi
12:15 AM66 °FClear.8 mph19%29.83 "Hg10 mi
11:55 PM
Tue, Mar 31
66 °FClear.5 mph18%29.82 "Hg10 mi
11:35 PM66 °FClear.7 mph19%29.82 "Hg10 mi
11:15 PM72 °FClear.3 mph16%29.82 "Hg10 mi
10:55 PM68 °FClear.5 mph18%29.82 "Hg10 mi
10:35 PM70 °FClear.No wind17%29.82 "Hg10 mi
10:15 PM73 °FClear.9 mph16%29.81 "Hg10 mi
9:55 PM73 °FClear.12 mph16%29.81 "Hg10 mi
9:35 PM73 °FClear.13 mph17%29.81 "Hg10 mi
8:55 PM75 °FClear.14 mph15%29.80 "Hg10 mi
8:35 PM77 °FSunny.14 mph14%29.80 "Hg10 mi
8:15 PM79 °FSunny.18 mph13%29.80 "Hg10 mi
7:55 PM79 °FSunny.15 mph13%29.80 "Hg10 mi
7:35 PM81 °FSunny.17 mph13%29.80 "Hg10 mi
7:15 PM82 °FSunny.18 mph12%29.80 "Hg10 mi
6:55 PM82 °FSunny.21 mph12%29.80 "Hg10 mi
6:35 PM82 °FSunny.16 mph12%29.81 "Hg10 mi
6:15 PM84 °FSunny.18 mph11%29.81 "Hg10 mi
5:55 PM84 °FSunny.21 mph12%29.82 "Hg10 mi
5:35 PM84 °FSunny.3 mph12%29.83 "Hg10 mi
5:15 PM82 °FSunny.9 mph13%29.84 "Hg10 mi
4:55 PM82 °FSunny.10 mph14%29.84 "Hg10 mi
4:35 PM82 °FSunny.7 mph14%29.85 "Hg10 mi
4:15 PM82 °FSunny.8 mph14%29.86 "Hg10 mi
3:55 PM82 °FSunny.9 mph14%29.88 "Hg10 mi
3:35 PM82 °FSunny.14 mph14%29.89 "Hg10 mi
3:15 PM82 °FSunny.15 mph14%29.90 "Hg10 mi
2:55 PM82 °FSunny.12 mph14%29.91 "Hg10 mi
2:35 PM81 °FSunny.9 mph15%29.92 "Hg10 mi
2:15 PM79 °FSunny.6 mph17%29.93 "Hg10 mi
1:55 PM77 °FSunny.3 mph18%29.95 "Hg10 mi
1:35 PM75 °FSunny.No wind19%29.96 "Hg10 mi
1:15 PM73 °FSunny.6 mph20%29.97 "Hg10 mi
12:55 PM73 °FSunny.5 mph20%29.98 "Hg10 mi
12:35 PM72 °FSunny.No wind20%29.99 "Hg10 mi
12:15 PM70 °FSunny.3 mph21%30.00 "Hg10 mi
Weather by CustomWeather, © 2015

See weather overviewHow to use our weather pages